User: anonymous   Login
Location: Hoyos del Collado
(40.3594°N, 5.2003°W)
Time: 12:08:01
(UTC+00:00)
Language:

ISS - Orbit

View from above orbital plane
View from above orbital plane
View from above satellite
View from above satellite

Ground track
Ground track

The orbit data is extracted from the following two-line orbital elements,

1 25544U 98067A   24195.20379146  .00014016  00000-0  25454-3 0  9998
2 25544  51.6394 186.4466 0010635  60.0487  31.0029 15.49794960462589
Epoch (UTC): 13 July 2024 04:53:27
Eccentricity: 0.0010635
inclination: 51.6394°
perigee height: 410 km
apogee height: 424 km
right ascension of ascending node: 186.4466°
argument of perigee: 60.0487°
revolutions per day: 15.49794960
mean anomaly at epoch: 31.0029°
orbit number at epoch: 46258

The dashed part of the orbit path shows where the satellite is in the earth's shadow,  

DLR